[[{"header":{"parameterUnit":"m.s-1","parameterCategory":1,"la1":30.2991,"la2":30.254,"lo1":-89.0895,"lo2":-89.0444,"dy":0.0017,"dx":0.0017,"nx":28,"ny":28,"refTime":"2025-04-21T21:00:00:Z","depth":0,"parameterNumber":2,"parameterNumberName":"U-component_of_WINDS"},"data":[0,0,0,0,0,0,0,0,0,0,0,0,0,0,0,0,0,0,0,0,0,0,0,0,0,0,0,0,0,0,0,0,0,0,0,0,0,0,0,0,0,0,0,0,0,0,0,0,0,0,0,0,0,0,0,0,0,0,-2.5429,-2.5429,0,-2.5445,-2.5445,-2.5446,-2.5437,-2.5437,-2.5437,-2.5436,-2.5453,-2.5453,-2.5454,0,0,0,0,0,0,0,0,0,0,0,0,0,-2.5393,-2.5394,-2.5429,-2.5429,-2.543,-2.5445,-2.5445,-2.5446,-2.5438,-2.5437,-2.5437,-2.5436,-2.5452,-2.5453,-2.5454,0,0,0,0,0,0,0,0,0,0,0,0,0,-2.5409,-2.5394,-2.5429,-2.5427,-2.5427,-2.5445,-2.5445,-2.5446,-2.5438,-2.5437,-2.5436,-2.5436,-2.5452,-2.5453,-2.5454,-2.5475,0,0,-2.5458,-2.5459,0,0,0,0,0,0,0,0,-2.5408,-2.541,-2.5427,-2.5428,-2.5428,-2.5439,-2.5439,-2.5455,-2.5438,-2.5434,-2.5436,-2.5435,-2.5448,-2.545,-2.5454,-2.5476,-2.5476,-2.5458,-2.5459,-2.546,-2.546,0,0,0,0,0,0,0,-2.5407,-2.541,-2.5436,-2.5428,-2.5428,-2.5427,-2.5428,-2.5442,-2.5444,-2.5434,-2.5434,-2.5436,-2.5448,-2.5453,-2.5455,-2.5477,-2.5458,-2.5459,-2.546,-2.5461,-2.5518,-2.5518,0,0,0,0,0,0,-2.5406,-2.5409,-2.5435,-2.5436,-2.5416,-2.5428,-2.5429,-2.5436,-2.5444,-2.5445,-2.5436,-2.5435,-2.5451,-2.5453,-2.5455,-2.548,-2.546,-2.5461,-2.5462,-2.5517,-2.5518,-2.5519,0,0,0,0,0,0,-2.5405,-2.5408,-2.5434,-2.5422,-2.5426,-2.5429,-2.5436,-2.5436,-2.5441,-2.5446,-2.5446,-2.544,-2.5451,-2.5453,-2.5471,-2.5481,-2.5461,-2.5462,-2.5516,-2.5517,-2.5518,-2.553,0,0,0,0,0,0,-2.5404,-2.5408,-2.5415,-2.5423,-2.5426,-2.5449,-2.5437,-2.5437,-2.5443,-2.5442,-2.545,-2.5451,-2.5451,-2.5469,-2.5472,-2.5482,-2.5463,-2.5515,-2.5516,-2.5518,-2.5529,-2.5532,-2.5534,0,0,0,0,0,-2.5403,-2.5418,-2.5416,-2.5419,-2.5435,-2.5449,-2.5451,-2.5451,-2.5444,-2.5452,-2.5455,-2.545,-2.548,-2.547,-2.5474,-2.5485,-2.5514,-2.5516,-2.5518,-2.5528,-2.5531,-2.5534,0,0,0,0,0,0,-2.541,-2.5418,-2.5416,-2.5433,-2.5441,-2.5448,-2.5457,-2.5454,-2.5464,-2.5462,-2.5462,-2.5464,-2.5481,-2.5485,-2.5475,-2.5506,-2.5496,-2.5499,-2.5502,-2.5506,-2.5508,-2.5506,-2.5464,0,0,0,0,0,-2.5414,-2.5425,-2.5431,-2.5446,-2.545,-2.5453,-2.5459,-2.5459,-2.5466,-2.5469,-2.5474,-2.5481,-2.5493,-2.55,-2.551,-2.553,-2.5532,-2.554,-2.5543,-2.5545,-2.5546,-2.5558,-2.5562,-2.5524,-2.5524,-2.5524,0,0,-2.5422,-2.5428,-2.5434,-2.5448,-2.5453,-2.5465,-2.5455,-2.5467,-2.5476,-2.5471,-2.5487,-2.5491,-2.55,-2.5519,-2.5528,-2.5523,-2.5558,-2.5547,-2.5548,-2.5549,-2.5561,-2.5564,-2.5567,-2.5525,-2.5525,-2.5525,0,0,-2.5441,-2.5446,-2.546,-2.5466,-2.5475,-2.5478,-2.5481,-2.5489,-2.5492,-2.5509,-2.5505,-2.5517,-2.5535,-2.5542,-2.5548,-2.5574,-2.557,-2.5578,-2.559,-2.5602,-2.5605,-2.5608,-2.5617,-2.562,-2.558,-2.558,-2.558,0,-2.5449,-2.5466,-2.5467,-2.548,-2.5486,-2.5484,-2.5498,-2.5504,-2.5516,-2.5521,-2.5516,-2.5541,-2.5546,-2.5568,-2.5574,-2.5579,-2.5584,-2.5575,-2.5605,-2.5607,-2.561,-2.5619,-2.5622,-2.5581,-2.558,-2.558,-2.558,0,-2.5475,-2.5487,-2.5497,-2.5509,-2.5518,-2.5531,-2.5535,-2.5543,-2.5543,-2.5547,-2.5565,-2.5573,-2.5585,-2.5591,-2.559,-2.5612,-2.5609,-2.5605,-2.5594,-2.5614,-2.5622,-2.5626,-2.5582,-2.5581,-2.5581,-2.5581,0,0,-2.5497,-2.5512,-2.5515,-2.5521,-2.5533,-2.5542,-2.5557,-2.557,-2.5577,-2.5587,-2.5599,-2.5617,-2.5613,-2.562,-2.5621,-2.5632,-2.5653,-2.5626,-2.5626,-2.563,-2.5678,-2.5681,-2.5684,-2.5651,-2.5652,-2.5652,-2.5677,0,-2.5517,-2.5541,-2.5544,-2.5566,-2.5577,-2.5577,-2.5589,-2.5598,-2.5603,-2.5614,-2.562,-2.5632,-2.5627,-2.5631,-2.5642,-2.5648,-2.5662,-2.5646,-2.5663,-2.5663,-2.5658,-2.5689,-2.5691,-2.5714,-2.5681,-2.5681,-2.5682,0,-2.5542,-2.5553,-2.5576,-2.5588,-2.5593,-2.5604,-2.5617,-2.5628,-2.5639,-2.5642,-2.5651,-2.5651,-2.5668,-2.5658,-2.5681,-2.567,-2.5678,-2.5682,-2.5683,-2.5683,-2.5672,-2.5689,-2.5721,-2.5724,-2.5687,-2.5686,-2.5686,0,-2.5555,-2.5576,-2.5592,-2.5598,-2.5612,-2.562,-2.5626,-2.5637,-2.5645,-2.5657,-2.5663,-2.5677,-2.5684,-2.5695,-2.57,-2.5693,-2.5723,-2.5714,-2.5726,-2.5725,-2.573,-2.5729,-2.5763,-2.5737,-2.5737,-2.5737,-2.5737,0,-2.5576,-2.559,-2.5599,-2.5609,-2.5625,-2.563,-2.5646,-2.5652,-2.5662,-2.5675,-2.5676,-2.5687,-2.5693,-2.5706,-2.5711,-2.5729,-2.5733,-2.5736,-2.5736,-2.5735,-2.5734,-2.5738,-2.5736,-2.5738,-2.5738,-2.5738,-2.5737,0,-2.5592,-2.5598,-2.5616,-2.5629,-2.5633,-2.5644,-2.5656,-2.5666,-2.5672,-2.5688,-2.5692,-2.5701,-2.5716,-2.5723,-2.5742,-2.5745,-2.5766,-2.5766,-2.5762,-2.5762,-2.5773,-2.5772,-2.5809,-2.5815,-2.5787,-2.5787,-2.5787,0,-2.5604,-2.5615,-2.5629,-2.5638,-2.5644,-2.5657,-2.5666,-2.5672,-2.5682,-2.5697,-2.5706,-2.5722,-2.5734,-2.5759,-2.5768,-2.5783,-2.5783,-2.5796,-2.5785,-2.5784,-2.5783,-2.5781,-2.5783,-2.5796,-2.5797,-2.5797,-2.5797,0,-2.5625,-2.5628,-2.564,-2.5655,-2.5665,-2.5677,-2.5688,-2.5695,-2.5703,-2.5714,-2.573,-2.574,-2.576,-2.5776,-2.5792,-2.58,-2.58,-2.5801,-2.5804,-2.5802,-2.5799,-2.58,-2.5766,-2.5799,-2.5799,-2.5799,-2.5799,-2.5799,-2.5639,-2.5649,-2.5661,-2.5676,-2.5685,-2.5696,-2.5707,-2.5715,-2.5728,-2.5745,-2.5749,-2.5766,-2.5779,-2.5801,-2.581,-2.5824,-2.5821,-2.5826,-2.5827,-2.5828,-2.5828,-2.5798,-2.5827,-2.5827,-2.5827,-2.5827,-2.5827,0,-2.566,-2.5668,-2.5681,-2.5697,-2.5709,-2.5709,-2.5723,-2.5733,-2.5748,-2.576,-2.5773,-2.5793,-2.5809,-2.582,-2.5837,-2.5846,-2.5847,-2.585,-2.5849,-2.5851,-2.583,-2.5825,-2.585,-2.585,-2.585,-2.585,-2.585,-2.585,-2.5672,-2.5689,-2.5694,-2.5717,-2.5726,-2.5742,-2.575,-2.5761,-2.5771,-2.5792,-2.5806,-2.5813,-2.5826,-2.5844,-2.5859,-2.5862,-2.5868,-2.5872,-2.5874,-2.5854,-2.5852,-2.585,-2.5845,-2.5873,-2.5873,-2.5894,-2.5894,-2.5894]},{"header":{"parameterUnit":"m.s-1","parameterCategory":1,"la1":30.2991,"la2":30.254,"lo1":-89.0895,"lo2":-89.0444,"dy":0.0017,"dx":0.0017,"nx":28,"ny":28,"refTime":"2025-04-21T21:00:00:Z","depth":0,"parameterNumber":3,"parameterNumberName":"V-component_of_WINDS"},"data":[0,0,0,0,0,0,0,0,0,0,0,0,0,0,0,0,0,0,0,0,0,0,0,0,0,0,0,0,0,0,0,0,0,0,0,0,0,0,0,0,0,0,0,0,0,0,0,0,0,0,0,0,0,0,0,0,0,0,2.9894,2.9894,0,2.9878,2.9878,2.9878,2.9918,2.9919,2.992,2.9922,2.9901,2.9899,2.9898,0,0,0,0,0,0,0,0,0,0,0,0,0,2.9954,2.9953,2.9894,2.9894,2.9893,2.9878,2.9878,2.9878,2.9918,2.9919,2.9921,2.9922,2.9902,2.99,2.9897,0,0,0,0,0,0,0,0,0,0,0,0,0,2.9932,2.9952,2.9894,2.9912,2.9913,2.9878,2.9878,2.9878,2.9917,2.9919,2.9921,2.9923,2.9902,2.99,2.9897,2.9843,0,0,2.9889,2.9888,0,0,0,0,0,0,0,0,2.9933,2.993,2.9909,2.991,2.9912,2.9902,2.9892,2.9866,2.9917,2.9916,2.9922,2.9924,2.99,2.9897,2.989,2.9842,2.9841,2.9889,2.9887,2.9886,2.9886,0,0,0,0,0,0,0,2.9935,2.9931,2.9888,2.9909,2.991,2.9919,2.9918,2.9887,2.9897,2.9916,2.9919,2.9917,2.9901,2.9892,2.989,2.9841,2.9889,2.9887,2.9885,2.9884,2.9749,2.9747,0,0,0,0,0,0,2.9934,2.9932,2.9888,2.9887,2.9928,2.9916,2.9915,2.9903,2.9897,2.9898,2.9915,2.9919,2.9896,2.9893,2.9889,2.9826,2.9886,2.9884,2.9882,2.9751,2.9748,2.9746,0,0,0,0,0,0,2.9936,2.993,2.9889,2.991,2.9906,2.9913,2.9899,2.9902,2.9894,2.9897,2.9898,2.9905,2.9897,2.9893,2.9855,2.9826,2.9883,2.988,2.9753,2.975,2.9747,2.9699,0,0,0,0,0,0,2.9937,2.993,2.9911,2.9909,2.9904,2.9855,2.9898,2.99,2.989,2.9894,2.9888,2.9889,2.9898,2.9859,2.9852,2.9823,2.9878,2.9756,2.9752,2.9748,2.9703,2.9694,2.9687,0,0,0,0,0,2.9939,2.9896,2.9909,2.9904,2.988,2.9854,2.9851,2.9864,2.9887,2.9867,2.9869,2.9889,2.983,2.9854,2.9848,2.9817,2.9758,2.9753,2.9749,2.9706,2.9696,2.9687,0,0,0,0,0,0,2.9892,2.9897,2.9911,2.9867,2.986,2.9861,2.9835,2.9852,2.9837,2.9842,2.9858,2.9856,2.9815,2.9812,2.9839,2.9765,2.9798,2.9792,2.9768,2.9758,2.975,2.9751,2.9876,0,0,0,0,0,2.9877,2.9856,2.9861,2.9822,2.9818,2.9827,2.9816,2.9827,2.982,2.9816,2.9816,2.9807,2.9786,2.9772,2.9754,2.9703,2.9702,2.9679,2.9671,2.9665,2.9659,2.9632,2.9622,2.9731,2.9731,2.9731,0,0,2.9845,2.9845,2.983,2.9812,2.9808,2.9785,2.9824,2.9798,2.9781,2.9812,2.9777,2.9776,2.9767,2.9722,2.9703,2.9719,2.9629,2.9659,2.9654,2.9651,2.9626,2.9616,2.9607,2.9728,2.9729,2.9729,0,0,2.9774,2.9772,2.974,2.9735,2.9729,2.9736,2.9728,2.9727,2.9728,2.9693,2.9716,2.9695,2.966,2.9653,2.9644,2.9573,2.959,2.9566,2.9524,2.9498,2.9489,2.9481,2.9456,2.9446,2.956,2.956,2.956,0,2.9734,2.9703,2.972,2.9693,2.9684,2.9714,2.968,2.9674,2.9662,2.9654,2.9673,2.963,2.9626,2.9581,2.9563,2.9556,2.9546,2.9566,2.9489,2.9482,2.9475,2.945,2.9441,2.9557,2.9558,2.9558,2.9558,0,2.9654,2.9631,2.9605,2.9595,2.9583,2.9552,2.9565,2.9551,2.9563,2.9568,2.9532,2.9528,2.9509,2.95,2.9511,2.9456,2.9466,2.9487,2.952,2.9461,2.9438,2.9429,2.9553,2.9554,2.9555,2.9556,0,0,2.9552,2.9553,2.9543,2.9538,2.9535,2.9517,2.9488,2.9472,2.9459,2.9449,2.9425,2.9395,2.9415,2.9405,2.9416,2.9393,2.9336,2.9417,2.9417,2.9401,2.9275,2.9259,2.9248,2.9349,2.9347,2.9345,2.9276,0,2.9482,2.9434,2.945,2.9401,2.938,2.9408,2.9383,2.9377,2.938,2.9362,2.9366,2.9345,2.9372,2.9367,2.9346,2.9348,2.9311,2.9353,2.9324,2.9323,2.9325,2.9236,2.9219,2.9153,2.9267,2.9265,2.9264,0,2.9395,2.9384,2.9333,2.9333,2.9325,2.9302,2.9289,2.9272,2.9266,2.927,2.926,2.9276,2.9247,2.9281,2.924,2.9268,2.9258,2.9257,2.9255,2.9252,2.929,2.923,2.9132,2.9122,2.925,2.9252,2.9252,0,2.9325,2.9298,2.9264,2.9259,2.9259,2.9242,2.9241,2.9237,2.9226,2.9214,2.9208,2.9191,2.9182,2.9169,2.918,2.9204,2.9137,2.9172,2.9139,2.9138,2.9123,2.9123,2.9021,2.9117,2.9117,2.9117,2.9117,0,2.9245,2.9213,2.9233,2.9212,2.9176,2.9194,2.9158,2.916,2.9157,2.9136,2.9158,2.9138,2.9154,2.9135,2.9143,2.9108,2.9103,2.9105,2.9108,2.9103,2.9103,2.9095,2.91,2.9115,2.9115,2.9116,2.9116,0,2.9161,2.9173,2.9138,2.9142,2.9142,2.9115,2.9118,2.9098,2.9104,2.9077,2.9072,2.9081,2.9059,2.9069,2.9046,2.9052,2.9007,2.9015,2.9009,2.9011,2.8977,2.898,2.8866,2.8852,2.8957,2.8956,2.8955,0,2.911,2.9086,2.9087,2.9076,2.9073,2.9054,2.9044,2.9061,2.9049,2.9041,2.9022,2.9003,2.8989,2.8953,2.8957,2.8939,2.8947,2.8909,2.8945,2.8941,2.8946,2.8947,2.8945,2.8901,2.89,2.8899,2.8898,0,2.9016,2.9024,2.9009,2.8996,2.8984,2.8975,2.8967,2.8956,2.8972,2.8958,2.8937,2.8926,2.8904,2.8885,2.887,2.8867,2.8885,2.8887,2.8878,2.8873,2.887,2.8871,2.8989,2.8889,2.889,2.8891,2.8891,2.8892,2.8946,2.8927,2.8925,2.8908,2.8904,2.8897,2.8879,2.8883,2.8867,2.8851,2.8862,2.8837,2.8832,2.8814,2.8809,2.879,2.8805,2.8792,2.8789,2.8785,2.8781,2.8874,2.8787,2.8787,2.8787,2.8788,2.8788,0,2.8854,2.8855,2.8839,2.8828,2.8815,2.8835,2.8828,2.8814,2.8793,2.8788,2.8774,2.875,2.8732,2.8734,2.8717,2.8701,2.8708,2.8696,2.8697,2.8696,2.8768,2.8778,2.869,2.869,2.869,2.869,2.869,2.869,2.8805,2.8772,2.878,2.8746,2.8746,2.8724,2.8718,2.8711,2.8707,2.868,2.8665,2.8668,2.8665,2.8648,2.8632,2.8633,2.8625,2.8609,2.8613,2.8681,2.8691,2.87,2.8708,2.8608,2.8608,2.8542,2.8542,2.8541]}]]